| time (UTC) | temp C | wind direction | speed KPH | gust KPH | rain 1hr cm | rain 24hr cm | rain mn cm | humidity % | barometer mb |
| 20260509053937 | 21 | 0.0 | 0.0 | 0.00 | 0.18 | 0.00 | 58 | 1009.4 | |
| 20260509052036 | 21 | 0.0 | 0.0 | 0.00 | 0.18 | 0.00 | 58 | 1009.8 | |
| 20260509051036 | 21 | 0.0 | 0.0 | 0.00 | 0.18 | 0.00 | 59 | 1009.9 | |
| 20260509045957 | 21 | 0.0 | 0.0 | 0.00 | 0.18 | 0.18 | 60 | 1008.8 | |
| 20260509044957 | 21 | 0.0 | 0.0 | 0.00 | 0.18 | 0.18 | 60 | 1008.5 | |
| 20260509043957 | 21 | 0.0 | 0.0 | 0.00 | 0.18 | 0.18 | 59 | 1008.2 | |
| 20260509043017 | 21 | 0.0 | 0.0 | 0.00 | 0.18 | 0.18 | 59 | 1008.2 | |
| 20260509041917 | 22 | 0.0 | 1.6 | 0.00 | 0.18 | 0.18 | 58 | 1008.3 | |
| 20260509040957 | 22 | 0.0 | 0.0 | 0.00 | 0.18 | 0.18 | 58 | 1008.1 | |
| 20260509035937 | 22 | 0.0 | 0.0 | 0.00 | 0.18 | 0.18 | 58 | 1008.5 | |
| 20260509034917 | 22 | 0.0 | 0.0 | 0.00 | 0.18 | 0.18 | 58 | 1008.7 | |
| 20260509033917 | 22 | 0.0 | 0.0 | 0.00 | 0.18 | 0.18 | 58 | 1009.3 | |
| 20260509032957 | 22 | 0.0 | 0.0 | 0.00 | 0.18 | 0.18 | 58 | 1008.9 | |
| 20260509031917 | 22 | 0.0 | 0.0 | 0.00 | 0.18 | 0.18 | 58 | 1008.6 | |
| 20260509030917 | 22 | 0.0 | 0.0 | 0.00 | 0.18 | 0.18 | 58 | 1008.6 | |
| 20260509025917 | 22 | 0.0 | 0.0 | 0.00 | 0.18 | 0.18 | 58 | 1008.6 | |
| 20260509024917 | 22 | 0.0 | 0.0 | 0.00 | 0.18 | 0.18 | 58 | 1008.1 | |
| 20260509023917 | 22 | 0.0 | 0.0 | 0.00 | 0.18 | 0.18 | 58 | 1007.7 | |
| 20260509022917 | 22 | 0.0 | 1.6 | 0.00 | 0.18 | 0.18 | 58 | 1007.5 | |
| 20260509021917 | 22 | 0.0 | 1.6 | 0.00 | 0.18 | 0.18 | 58 | 1007.3 | |
| 20260509020939 | 22 | 0.0 | 0.0 | 0.00 | 0.18 | 0.18 | 58 | 1007.2 | |
| 20260509015937 | 22 | 0.0 | 3.2 | 0.00 | 0.18 | 0.18 | 57 | 1007.2 | |
| 20260509014917 | 22 | 0.0 | 0.0 | 0.00 | 0.18 | 0.18 | 57 | 1007.3 | |
| 20260509013947 | 22 | 0.0 | 0.0 | 0.00 | 0.18 | 0.18 | 57 | 1007.2 | |
| 20260509013057 | 22 | 0.0 | 0.0 | 0.00 | 0.18 | 0.18 | 56 | 1007.2 | |
| 20260509012017 | 22 | 0.0 | 0.0 | 0.00 | 0.18 | 0.18 | 56 | 1007.1 | |
| 20260509011037 | 22 | 0.0 | 0.0 | 0.00 | 0.18 | 0.18 | 55 | 1007.1 | |
| 20260509010157 | 23 | 0.0 | 0.0 | 0.00 | 0.18 | 0.18 | 55 | 1007.0 | |
| 20260509005057 | 23 | 0.0 | 1.6 | 0.00 | 0.18 | 0.18 | 54 | 1006.8 | |
| 20260509004017 | 23 | 0.0 | 8.0 | 0.00 | 0.18 | 0.18 | 53 | 1006.6 | |
| 20260509003017 | 23 | 0.0 | 1.6 | 0.00 | 0.18 | 0.18 | 52 | 1006.4 | |
| 20260509002017 | 23 | 0.0 | 1.6 | 0.00 | 0.18 | 0.18 | 53 | 1006.4 | |
| 20260509001057 | 23 | 157 | 1.6 | 6.4 | 0.00 | 0.18 | 0.18 | 52 | 1006.4 |
| 20260509000037 | 23 | 0.0 | 3.2 | 0.00 | 0.18 | 0.18 | 52 | 1006.6 | |
| 20260508235017 | 24 | 0.0 | 1.6 | 0.00 | 0.18 | 0.18 | 52 | 1006.8 | |
| 20260508234017 | 24 | 112 | 1.6 | 4.8 | 0.00 | 0.18 | 0.18 | 51 | 1006.9 |
| 20260508233017 | 24 | 0.0 | 3.2 | 0.00 | 0.18 | 0.18 | 51 | 1006.9 | |
| 20260508232037 | 24 | 0.0 | 1.6 | 0.00 | 0.18 | 0.18 | 50 | 1007.1 | |
| 20260508231037 | 24 | 0.0 | 1.6 | 0.00 | 0.18 | 0.18 | 51 | 1007.1 | |
| 20260508230117 | 24 | 135 | 1.6 | 4.8 | 0.00 | 0.18 | 0.18 | 50 | 1007.1 |
| 20260508225017 | 25 | 0.0 | 1.6 | 0.00 | 0.18 | 0.18 | 49 | 1007.1 | |
| 20260508223017 | 25 | 45 | 1.6 | 6.4 | 0.00 | 0.18 | 0.18 | 48 | 1007.2 |
| 20260508222057 | 26 | 270 | 1.6 | 6.4 | 0.00 | 0.18 | 0.18 | 47 | 1007.0 |
| 20260508221037 | 26 | 67 | 3.2 | 8.0 | 0.00 | 0.18 | 0.18 | 46 | 1007.0 |
| 20260508220017 | 26 | 0.0 | 1.6 | 0.00 | 0.18 | 0.18 | 45 | 1006.9 | |
| 20260508214017 | 27 | 90 | 1.6 | 6.4 | 0.00 | 0.18 | 0.18 | 45 | 1007.0 |
| 20260508213017 | 27 | 0.0 | 4.8 | 0.00 | 0.18 | 0.18 | 45 | 1007.0 | |
| 20260508212158 | 27 | 0.0 | 3.2 | 0.00 | 0.18 | 0.18 | 45 | 1007.2 | |
| 20260508211057 | 26 | 0.0 | 0.0 | 0.00 | 0.18 | 0.18 | 48 | 1007.3 | |
| 20260508210017 | 25 | 0.0 | 0.0 | 0.00 | 0.18 | 0.18 | 50 | 1007.8 | |
| 20260508205137 | 24 | 90 | 1.6 | 8.0 | 0.00 | 0.18 | 0.18 | 49 | 1008.3 |
| 20260508204057 | 24 | 0.0 | 1.6 | 0.00 | 0.18 | 0.18 | 49 | 1008.7 | |
| 20260508203057 | 25 | 0.0 | 1.6 | 0.00 | 0.18 | 0.18 | 48 | 1009.0 | |
| 20260508202017 | 25 | 0.0 | 1.6 | 0.00 | 0.18 | 0.18 | 48 | 1008.9 | |
| 20260508201017 | 25 | 0.0 | 1.6 | 0.00 | 0.18 | 0.18 | 48 | 1009.0 | |
| 20260508200017 | 25 | 0.0 | 1.6 | 0.00 | 0.18 | 0.18 | 46 | 1009.1 | |
| 20260508195017 | 25 | 0.0 | 3.2 | 0.00 | 0.18 | 0.18 | 47 | 1009.1 | |
| 20260508194118 | 25 | 67 | 1.6 | 6.4 | 0.00 | 0.18 | 0.18 | 46 | 1009.2 |
| 20260508193037 | 26 | 0.0 | 1.6 | 0.00 | 0.18 | 0.18 | 45 | 1009.2 | |
| 20260508192017 | 26 | 67 | 1.6 | 4.8 | 0.00 | 0.18 | 0.18 | 44 | 1009.2 |
| 20260508191017 | 26 | 0.0 | 0.0 | 0.00 | 0.18 | 0.18 | 44 | 1009.4 | |
| 20260508190017 | 26 | 67 | 1.6 | 6.4 | 0.00 | 0.18 | 0.18 | 44 | 1009.4 |
| 20260508184017 | 26 | 0.0 | 1.6 | 0.00 | 0.18 | 0.18 | 43 | 1009.4 | |
| 20260508183057 | 26 | 67 | 1.6 | 6.4 | 0.00 | 0.18 | 0.18 | 44 | 1009.6 |
| 20260508182017 | 26 | 0.0 | 1.6 | 0.00 | 0.18 | 0.18 | 44 | 1009.9 | |
| 20260508181017 | 26 | 225 | 1.6 | 3.2 | 0.00 | 0.18 | 0.18 | 43 | 1010.1 |
| 20260508180017 | 26 | 0.0 | 1.6 | 0.00 | 0.18 | 0.18 | 41 | 1010.3 | |
| 20260508175037 | 26 | 0.0 | 1.6 | 0.00 | 0.18 | 0.18 | 43 | 1010.3 | |
| 20260508174037 | 25 | 112 | 1.6 | 3.2 | 0.00 | 0.18 | 0.18 | 43 | 1010.4 |
| 20260508173017 | 25 | 0.0 | 1.6 | 0.00 | 0.18 | 0.18 | 45 | 1010.5 | |
| 20260508172037 | 24 | 45 | 1.6 | 3.2 | 0.00 | 0.18 | 0.18 | 47 | 1010.7 |
| 20260508171058 | 23 | 247 | 1.6 | 6.4 | 0.00 | 0.18 | 0.18 | 47 | 1011.1 |
| 20260508170037 | 23 | 0.0 | 0.0 | 0.00 | 0.18 | 0.18 | 48 | 1011.4 | |
| 20260508165037 | 22 | 0.0 | 1.6 | 0.00 | 0.18 | 0.18 | 49 | 1011.7 | |
| 20260508164017 | 22 | 0.0 | 1.6 | 0.00 | 0.18 | 0.18 | 49 | 1011.8 | |
| 20260508163017 | 22 | 0.0 | 0.0 | 0.00 | 0.18 | 0.18 | 50 | 1012.0 | |
| 20260508162057 | 21 | 0.0 | 1.6 | 0.00 | 0.18 | 0.18 | 50 | 1012.2 | |
| 20260508161017 | 21 | 67 | 1.6 | 4.8 | 0.00 | 0.18 | 0.18 | 50 | 1012.3 |
| 20260508160117 | 21 | 0.0 | 0.0 | 0.00 | 0.18 | 0.18 | 51 | 1012.3 | |
| 20260508155037 | 20 | 0.0 | 1.6 | 0.00 | 0.18 | 0.18 | 50 | 1012.4 | |
| 20260508154037 | 21 | 0.0 | 0.0 | 0.00 | 0.18 | 0.18 | 52 | 1012.6 | |
| 20260508153057 | 20 | 0.0 | 1.6 | 0.00 | 0.18 | 0.18 | 51 | 1012.7 | |
| 20260508152017 | 20 | 0.0 | 1.6 | 0.00 | 0.18 | 0.18 | 52 | 1012.6 | |
| 20260508151017 | 20 | 0.0 | 1.6 | 0.00 | 0.18 | 0.18 | 52 | 1012.8 | |
| 20260508150017 | 20 | 0.0 | 0.0 | 0.00 | 0.18 | 0.18 | 53 | 1012.8 | |
| 20260508145017 | 20 | 0.0 | 3.2 | 0.00 | 0.18 | 0.18 | 53 | 1012.8 | |
| 20260508144017 | 18 | 0.0 | 0.0 | 0.00 | 0.18 | 0.18 | 53 | 1012.6 | |
| 20260508143017 | 18 | 0.0 | 0.0 | 0.00 | 0.18 | 0.18 | 54 | 1012.9 | |
| 20260508142017 | 18 | 0.0 | 0.0 | 0.00 | 0.18 | 0.18 | 53 | 1013.0 | |
| 20260508141037 | 17 | 0.0 | 0.0 | 0.00 | 0.18 | 0.18 | 52 | 1013.0 | |
| 20260508140057 | 17 | 0.0 | 0.0 | 0.00 | 0.18 | 0.18 | 53 | 1013.0 | |
| 20260508135158 | 16 | 0.0 | 0.0 | 0.00 | 0.18 | 0.18 | 54 | 1012.9 | |
| 20260508134017 | 16 | 0.0 | 0.0 | 0.03 | 0.18 | 0.18 | 55 | 1012.9 | |
| 20260508133017 | 16 | 0.0 | 0.0 | 0.10 | 0.18 | 0.18 | 60 | 1012.9 | |
| 20260508132017 | 15 | 0.0 | 0.0 | 0.10 | 0.18 | 0.18 | 60 | 1013.1 | |
| 20260508131137 | 15 | 0.0 | 0.0 | 0.10 | 0.18 | 0.18 | 61 | 1013.0 | |
| 20260508130137 | 15 | 0.0 | 0.0 | 0.10 | 0.18 | 0.18 | 60 | 1012.9 | |
| 20260508125017 | 15 | 0.0 | 0.0 | 0.10 | 0.18 | 0.18 | 57 | 1013.5 | |
| 20260508124017 | 16 | 0.0 | 0.0 | 0.08 | 0.15 | 0.15 | 56 | 1013.1 | |
| 20260508123017 | 16 | 0.0 | 0.0 | 0.00 | 0.08 | 0.08 | 55 | 1013.6 | |
| 20260508122017 | 16 | 0.0 | 0.0 | 0.00 | 0.08 | 0.08 | 55 | 1013.2 | |
| 20260508121017 | 15 | 0.0 | 0.0 | 0.00 | 0.08 | 0.08 | 54 | 1013.3 | |
| 20260508120057 | 15 | 0.0 | 0.0 | 0.00 | 0.08 | 0.08 | 55 | 1013.1 | |
| 20260508115037 | 15 | 0.0 | 0.0 | 0.00 | 0.08 | 0.08 | 59 | 1013.5 | |
| 20260508114117 | 15 | 0.0 | 0.0 | 0.00 | 0.08 | 0.08 | 60 | 1013.1 | |
| 20260508112017 | 15 | 0.0 | 0.0 | 0.00 | 0.08 | 0.08 | 60 | 1013.1 | |
| 20260508111017 | 15 | 0.0 | 0.0 | 0.00 | 0.08 | 0.08 | 60 | 1012.8 | |
| 20260508110017 | 15 | 0.0 | 0.0 | 0.00 | 0.08 | 0.08 | 59 | 1013.4 | |
| 20260508105037 | 15 | 0.0 | 0.0 | 0.00 | 0.08 | 0.08 | 60 | 1013.7 | |
| 20260508104057 | 15 | 0.0 | 0.0 | 0.00 | 0.08 | 0.08 | 59 | 1013.4 | |
| 20260508103057 | 15 | 0.0 | 0.0 | 0.00 | 0.08 | 0.08 | 59 | 1013.1 | |
| 20260508102018 | 15 | 0.0 | 0.0 | 0.00 | 0.08 | 0.08 | 57 | 1012.5 | |
| 20260508101017 | 15 | 0.0 | 0.0 | 0.00 | 0.08 | 0.08 | 64 | 1012.5 | |
| 20260508095057 | 15 | 0.0 | 0.0 | 0.05 | 0.08 | 0.08 | 63 | 1012.3 | |
| 20260508094017 | 15 | 0.0 | 0.0 | 0.05 | 0.08 | 0.08 | 62 | 1012.5 | |
| 20260508093017 | 15 | 0.0 | 0.0 | 0.08 | 0.08 | 0.08 | 61 | 1012.5 | |
| 20260508092057 | 15 | 0.0 | 0.0 | 0.08 | 0.08 | 0.08 | 59 | 1012.5 | |
| 20260508091137 | 15 | 0.0 | 0.0 | 0.08 | 0.08 | 0.08 | 57 | 1012.7 | |
| 20260508090057 | 16 | 0.0 | 0.0 | 0.08 | 0.08 | 0.08 | 57 | 1012.8 | |
| 20260508085017 | 16 | 0.0 | 0.0 | 0.03 | 0.03 | 0.03 | 57 | 1013.1 | |
| 20260508084017 | 16 | 0.0 | 1.6 | 0.03 | 0.03 | 0.03 | 57 | 1013.3 | |
| 20260508083017 | 16 | 0.0 | 1.6 | 0.00 | 0.00 | 0.00 | 57 | 1012.1 | |
| 20260508082037 | 16 | 0.0 | 0.0 | 0.00 | 0.00 | 0.00 | 59 | 1013.1 | |
| 20260508081037 | 16 | 0.0 | 0.0 | 0.00 | 0.00 | 0.00 | 59 | 1013.5 | |
| 20260508080037 | 16 | 0.0 | 0.0 | 0.00 | 0.00 | 0.00 | 57 | 1013.5 | |
| 20260508075017 | 16 | 0.0 | 0.0 | 0.00 | 0.00 | 0.00 | 56 | 1014.6 | |
| 20260508074037 | 16 | 0.0 | 0.0 | 0.00 | 0.00 | 0.00 | 57 | 1014.2 | |
| 20260508073017 | 16 | 0.0 | 0.0 | 0.00 | 0.00 | 0.00 | 59 | 1013.7 | |
| 20260508072117 | 15 | 0.0 | 0.0 | 0.00 | 0.00 | 0.00 | 58 | 1013.7 | |
| 20260508071017 | 15 | 0.0 | 0.0 | 0.00 | 0.00 | 0.00 | 58 | 1013.7 | |
| 20260508070037 | 15 | 0.0 | 0.0 | 0.00 | 0.00 | 0.00 | 58 | 1013.9 | |
| 20260508065118 | 15 | 0.0 | 0.0 | 0.00 | 0.00 | 0.00 | 58 | 1013.8 | |
| 20260508064017 | 16 | 0.0 | 0.0 | 0.00 | 0.00 | 0.00 | 58 | 1014.3 | |
| 20260508063017 | 16 | 0.0 | 0.0 | 0.00 | 0.00 | 0.00 | 58 | 1014.4 | |
| 20260508062017 | 15 | 0.0 | 0.0 | 0.00 | 0.00 | 0.00 | 58 | 1014.4 | |
| 20260508061016 | 15 | 0.0 | 0.0 | 0.00 | 0.00 | 0.00 | 58 | 1014.5 | |
| 20260508060016 | 15 | 0.0 | 0.0 | 0.00 | 0.00 | 0.00 | 59 | 1014.3 | |
| 20260508055037 | 15 | 0.0 | 0.0 | 0.00 | 0.00 | 0.00 | 59 | 1014.3 | |
| 20260508054057 | 15 | 0.0 | 0.0 | 0.00 | 0.00 | 0.00 | 59 | 1014.3 |